Location: Biltmore Gardens
(41.6070°N, 83.4666°W)
Time: 22:17:00
(UTC+00:00)

A-11 Canister half - Pass Details

Date: 22 April 2021
Orbit: 1526 x 1682 km, 47.3° (Epoch: 13 May)

Event Time Altitude Azimuth Distance (km) Brightness Sun altitude
Rises 01:03:07 0° 292° (WNW) 4,929 14.2 -8.1°
Reaches altitude 10° 01:06:17 10° 294° (WNW) 3,946 12.9 -8.6°
Maximum altitude 01:16:31 81° 22° (NNE) 1,700 9.2 -10.4°
Enters shadow 01:25:39 14° 110° (ESE) 3,607 10.3 -11.9°
